Tracking 19572 objects as of 23-Feb-2019
HD Live streaming from Space Station
objects crossing your sky now

CHUANG XIN 1 (CZ-1)

Track CHUANG XIN 1 (CZ-1) now!
10-day predictions
CHUANG XIN 1 (CZ-1) is classified as:


NORAD ID: 28058
Int'l Code: 2003-049B
Perigee: 734.1 km
Apogee: 751.4 km
Inclination: 98.7 °
Period: 99.5 minutes
Semi major axis: 7113 km
RCS: 0.5789 m2 (medium)
Launch date: October 21, 2003
Source: People's Republic of China (PRC)
Launch site: Taiyaun Space Center, China (TSC)

Prototype of advanced telecommunications satellite for LEO.
aabbcc
Your satellite tracking list
Your tracking list is empty




NASA's NSSDC Master Catalog

Two Line Element Set (TLE):
1 28058U 03049B   19054.46801297  .00000007  00000-0  14896-4 0  9994
2 28058  98.6922 216.7902 0012169 326.2181  33.8234 14.46952060809939
Source of the keplerian elements: AFSPC